Weather Service Report


566 
ASUS45 KBOU 280807
RWRCO 

WEATHER ROUNDUP FOR COLORADO
NATIONAL WEATHER SERVICE DENVER/BOULDER CO
200 AM MDT THU AUG 28 2014

NOTE: "FAIR" INDICATES FEW OR NO CLOUDS BELOW 12000 FEET WITH NO
SIGNIFICANT WEATHER AND/OR OBSTRUCTIONS TO VISIBILITY.

COZ001>005-013-030-031-280900-
...NORTHWEST COLORADO...
  
CITY           SKY/WX    TMP DP  RH WIND       PRES   REMARKS
CRAIG          CLOUDY    53  50  89 W5        30.28F                  
HAYDEN         CLOUDY    52  46  82 W7        30.28F                  
MEEKER         LGT RAIN  51  50  96 CALM      30.30S FOG              
MOUNT WERNER   NOT AVBL                                               
STEAMBOAT SPGS CLOUDY    50  49  96 CALM      30.30S                  
WALDEN         CLOUDY    46  41  81 S5        30.32F                  
$$

COZ006>008-011-280900-
...WEST CENTRAL VALLEYS...
  
CITY           SKY/WX    TMP DP  RH WIND       PRES   REMARKS
GRAND JUNCTION CLOUDY    57  56  96 E3        30.24S                  
MONTROSE       LGT RAIN  54  49  83 S5        30.30S                  
EAGLE          CLOUDY    54  48  82 E3        30.31F                  
RIFLE          LGT RAIN  55  52  89 CALM      30.26S                  
DELTA          RAIN      58  54  86 E3        30.26S                  
NUCLA          NOT AVBL                                               
$$

COZ017>023-064>068-280900-
...SOUTHWEST COLORADO...
  
CITY           SKY/WX    TMP DP  RH WIND       PRES   REMARKS
DURANGO        CLEAR     46  43  89 CALM      30.31S                  
CORTEZ         CLEAR     47  46  97 NE3       30.30S                  
PAGOSA SPRINGS CLEAR     43  40  86 CALM      30.36S                  
TELLURIDE      CLOUDY    45  43  93 SE5       30.43F                  
WOLF CREEK PAS CLEAR     32  32 100 SW13      30.54S WCI  22          
$$

COZ009-010-012-014-032>034-037-058>063-280900-
...CENTRAL COLORADO...
  
CITY           SKY/WX    TMP DP  RH WIND       PRES   REMARKS
ASPEN          CLOUDY    49  46  90 CALM      30.34F                  
BUENA VISTA    MOCLDY    49  38  66 NW6       30.32R                  
COPPER MTN     RAIN      37  34  87 W14       30.50F VSB<1/4          
BERTHOUD PASS  FOG       32  30  93 N17G24    30.52S VSB<1/4 WCI  21  
COTTONWOOD PAS MOCLDY    48  34  57 W6        30.40R                  
GUNNISON       CLOUDY    50  41  71 CALM      30.36F                  
KREMMLING      CLOUDY    52  41  66 CALM      30.32S                  
LEADVILLE      CLOUDY    42  36  79 NW9       30.40F                  
MONARCH PASS   FOG       34  32  93 W28       30.60S VSB<1/4 WCI  20  
SALIDA         MOCLDY    54  39  57 CALM      30.35F                  
SUNLIGHT       LGT RAIN  43  41  93 CALM      30.48S VSB 1/2          
WILKERSON PASS NOT AVBL                                               
$$

COZ069>075-280900-
...SAN LUIS VALLEY/SANGRE DE CRISTO MOUNTAINS...
  
CITY           SKY/WX    TMP DP  RH WIND       PRES   REMARKS
ALAMOSA        CLEAR     43  38  82 CALM      30.32F                  
LA VETA PASS   NOT AVBL                                               
SAGUACHE       CLOUDY    46  39  76 N5        30.34F                  
$$

COZ035-036-038>040-280900-
...NORTHERN COLORADO FRONT RANGE...
  
CITY           SKY/WX    TMP DP  RH WIND       PRES   REMARKS
DENVER INTL AP PTCLDY    56  51  84 S9        30.15F                  
DMNS CITY PARK   N/A     55  51  86 SE3       30.15S                  
AURORA         PTCLDY    54  53  97 S6        30.18S                  
FRONT RANGE AP CLEAR     55  54  94 SW6       30.16F                  
ERIE MUNI ARPT PTCLDY    55  53  93 SE3       30.14F                  
BOULDER MUN AP CLEAR     55  50  82 CALM      30.14F                  
CENTENNIAL     PTCLDY    52  48  86 W8        30.18F                  
BROOMFIELD     CLEAR     54  50  87 W7        30.17F                  
FORT COLLINS   PTCLDY    55  52  88 S7        30.14F                  
LONGMONT       PTCLDY    56  53  88 CALM      30.15F                  
$$

COZ041-046-047-076>085-087-088-280900-
...PIKES PEAK/PALMER DIVIDE AND SOUTHERN FOOTHILLS...
  
CITY           SKY/WX    TMP DP  RH WIND       PRES   REMARKS
COLO. SPRINGS  PTCLDY    56  49  77 NW6       30.20S                  
A. F. ACADEMY  CLEAR     50  44  80 N9        30.22S                  
ELLICOTT       PTCLDY    53  51  93 N8        30.17F                  
FALCON         CLEAR     51  49  92 N9        30.23S                  
FORT CARSON    CLEAR     54  48  80 N9        30.17F                  
LIMON          PTCLDY    56  54  93 NW6       30.14S                  
MONUMENT HILL  CLEAR     48  46  93 CALM      30.23S                  
TRINIDAD       CLEAR     58  40  51 NW8       30.19R                  
$$

COZ042>045-048>051-090-091-280900-
...NORTHEAST COLORADO...
  
CITY           SKY/WX    TMP DP  RH WIND       PRES   REMARKS
GREELEY ARPT   PTCLDY    57  46  67 W3        30.13F                  
AKRON          MOCLDY    60  55  83 NW3       30.09F                  
BURLINGTON     CLOUDY    60  58  92 N15G23    30.08F                  
WRAY             N/A    N/A N/A N/A NW6       30.06F                  
STERLING       DRIZZLE   64  64 100 NE7       30.04F                  
HOLYOKE        LGT RAIN  63  61  94 W9        30.05F                  
FORT MORGAN    MOCLDY    58  56  91 W7        30.11S                  
$$

COZ086-089-092>099-280900-
...SOUTHEAST COLORADO...
  
CITY           SKY/WX    TMP DP  RH WIND       PRES   REMARKS
PUEBLO         CLEAR     63  51  65 NW10      30.12S                  
LA JUNTA       PTCLDY    64  56  75 N9        30.07S                  
LAMAR          PTCLDY    66  57  72 N15G23    29.99S                  
SPRINGFIELD      N/A     63  55  75 W8        30.03F                  
$$

Return to Home page


Western Regional Climate Center, wrcc@dri.edu